[[{"header":{"parameterUnit":"m.s-1","parameterCategory":1,"la1":30.2991,"la2":30.254,"lo1":-89.0895,"lo2":-89.0444,"dy":0.0017,"dx":0.0017,"nx":28,"ny":28,"refTime":"2024-12-03T09:00:00:Z","depth":0,"parameterNumber":2,"parameterNumberName":"U-component_of_WINDS"},"data":[0,0,0,0,0,0,0,0,0,0,0,0,0,0,0,0,0,0,0,0,0,0,0,0,0,0,0,0,0,0,0,0,0,0,0,0,0,0,0,0,0,0,0,0,0,0,0,0,0,0,0,0,0,0,0,0,0,0,-4.2174,-4.2175,0,-4.2227,-4.2227,-4.2228,-4.2125,-4.2121,-4.2118,-4.2115,-4.2167,-4.2171,-4.2176,0,0,0,0,0,0,0,0,0,0,0,0,0,-4.1983,-4.1987,-4.2174,-4.2175,-4.2176,-4.2226,-4.2227,-4.2228,-4.2125,-4.2121,-4.2117,-4.2113,-4.2166,-4.2171,-4.2176,0,0,0,0,0,0,0,0,0,0,0,0,0,-4.2054,-4.1989,-4.2174,-4.213,-4.2127,-4.2226,-4.2227,-4.2228,-4.2126,-4.2121,-4.2116,-4.2111,-4.2164,-4.217,-4.2177,-4.2321,0,0,-4.2198,-4.2201,0,0,0,0,0,0,0,0,-4.205,-4.2061,-4.2136,-4.2134,-4.213,-4.2164,-4.2179,-4.2259,-4.2127,-4.2127,-4.2115,-4.2109,-4.217,-4.2176,-4.2197,-4.2323,-4.2325,-4.2199,-4.2203,-4.2206,-4.2208,0,0,0,0,0,0,0,-4.2045,-4.2058,-4.2195,-4.2137,-4.2134,-4.2108,-4.2112,-4.2194,-4.2176,-4.2126,-4.2119,-4.2127,-4.2167,-4.2191,-4.2197,-4.2326,-4.2198,-4.2204,-4.2209,-4.2211,-4.257,-4.2576,0,0,0,0,0,0,-4.2046,-4.2055,-4.2193,-4.2196,-4.2077,-4.2115,-4.212,-4.2158,-4.2175,-4.2173,-4.2131,-4.2122,-4.2181,-4.219,-4.2199,-4.2366,-4.2206,-4.2212,-4.2216,-4.2565,-4.2572,-4.2578,0,0,0,0,0,0,-4.2043,-4.206,-4.2191,-4.2124,-4.2138,-4.2124,-4.2167,-4.2162,-4.2185,-4.2178,-4.2174,-4.2158,-4.2178,-4.2189,-4.2291,-4.2366,-4.2215,-4.2221,-4.2559,-4.2567,-4.2575,-4.2702,0,0,0,0,0,0,-4.2038,-4.2059,-4.2114,-4.2126,-4.2142,-4.2283,-4.2172,-4.2167,-4.2197,-4.2185,-4.2203,-4.2201,-4.2175,-4.2281,-4.2298,-4.2373,-4.2227,-4.2552,-4.2562,-4.2572,-4.2691,-4.2714,-4.2733,0,0,0,0,0,-4.2031,-4.2148,-4.2117,-4.2134,-4.2211,-4.2288,-4.2297,-4.2265,-4.2204,-4.2258,-4.2254,-4.22,-4.2356,-4.2292,-4.231,-4.2389,-4.2547,-4.2559,-4.2571,-4.2682,-4.271,-4.2733,0,0,0,0,0,0,-4.2145,-4.2149,-4.2114,-4.2239,-4.2264,-4.227,-4.2338,-4.2296,-4.2338,-4.2325,-4.2283,-4.2288,-4.2397,-4.2403,-4.2333,-4.2527,-4.2441,-4.2457,-4.2519,-4.2545,-4.2566,-4.2561,-4.2232,0,0,0,0,0,-4.2184,-4.2247,-4.2247,-4.2356,-4.2371,-4.2353,-4.2385,-4.2358,-4.2382,-4.2392,-4.2395,-4.242,-4.2473,-4.251,-4.256,-4.2693,-4.2694,-4.2755,-4.2776,-4.2794,-4.2807,-4.2876,-4.2902,-4.2618,-4.2618,-4.2618,0,0,-4.2267,-4.2277,-4.2318,-4.238,-4.2395,-4.246,-4.2362,-4.2435,-4.2482,-4.2402,-4.2498,-4.2501,-4.2526,-4.2643,-4.2695,-4.2652,-4.2887,-4.2809,-4.2823,-4.2827,-4.2891,-4.2918,-4.2942,-4.2626,-4.2625,-4.2623,0,0,-4.2449,-4.2464,-4.2555,-4.2574,-4.2599,-4.2586,-4.2609,-4.2622,-4.2621,-4.2716,-4.2657,-4.2713,-4.2808,-4.2827,-4.285,-4.3039,-4.2991,-4.3057,-4.3165,-4.3233,-4.3255,-4.3275,-4.334,-4.3364,-4.3071,-4.3072,-4.3072,0,-4.2547,-4.2643,-4.2608,-4.2684,-4.2712,-4.2644,-4.2736,-4.2755,-4.2796,-4.2816,-4.2767,-4.2884,-4.2896,-4.3016,-4.3062,-4.3084,-4.3106,-4.3053,-4.3255,-4.3274,-4.3292,-4.3353,-4.3378,-4.3079,-4.3078,-4.3078,-4.3077,0,-4.2761,-4.2829,-4.29,-4.294,-4.2976,-4.3061,-4.3037,-4.3078,-4.3049,-4.3041,-4.3138,-4.315,-4.32,-4.3227,-4.32,-4.3343,-4.3315,-4.3262,-4.3173,-4.3327,-4.3384,-4.3408,-4.309,-4.3087,-4.3085,-4.3083,0,0,-4.3015,-4.3035,-4.3062,-4.3078,-4.3102,-4.3153,-4.3234,-4.3283,-4.3317,-4.3348,-4.3413,-4.3495,-4.3446,-4.3471,-4.3445,-4.3505,-4.3651,-4.3443,-4.3443,-4.3479,-4.3807,-4.3845,-4.3873,-4.362,-4.3625,-4.3628,-4.3804,0,-4.3193,-4.3331,-4.3302,-4.3438,-4.3498,-4.3435,-4.3505,-4.3526,-4.3521,-4.3571,-4.3566,-4.3623,-4.3555,-4.3569,-4.3626,-4.3621,-4.3716,-4.3609,-4.3678,-4.3681,-4.3671,-4.3903,-4.3944,-4.4109,-4.3826,-4.383,-4.3833,0,-4.3419,-4.3458,-4.3599,-4.3612,-4.3636,-4.3699,-4.3741,-4.3791,-4.3814,-4.3806,-4.3835,-4.3797,-4.3876,-4.3789,-4.3896,-4.3824,-4.3851,-4.3853,-4.3859,-4.3862,-4.3764,-4.391,-4.4162,-4.4185,-4.3868,-4.3865,-4.3863,0,-4.3586,-4.3674,-4.3769,-4.3786,-4.3804,-4.385,-4.3859,-4.3877,-4.3908,-4.3945,-4.3964,-4.4011,-4.4035,-4.4072,-4.4047,-4.3987,-4.4158,-4.4069,-4.4151,-4.4152,-4.4188,-4.4185,-4.4445,-4.4211,-4.421,-4.421,-4.4209,0,-4.3786,-4.3875,-4.3844,-4.3903,-4.4,-4.3966,-4.4062,-4.4064,-4.4081,-4.4137,-4.4087,-4.4141,-4.4107,-4.4158,-4.414,-4.423,-4.4242,-4.4237,-4.423,-4.424,-4.424,-4.4255,-4.4241,-4.4217,-4.4215,-4.4214,-4.4213,0,-4.3988,-4.3972,-4.4071,-4.408,-4.4084,-4.4155,-4.4161,-4.4215,-4.4207,-4.428,-4.4295,-4.4282,-4.4339,-4.4319,-4.4382,-4.4369,-4.4483,-4.4463,-4.4475,-4.4469,-4.4551,-4.4543,-4.4827,-4.4861,-4.4608,-4.461,-4.4613,0,-4.4116,-4.4182,-4.4198,-4.4232,-4.4245,-4.4302,-4.4333,-4.4303,-4.4337,-4.4368,-4.4418,-4.4471,-4.4512,-4.4608,-4.4603,-4.465,-4.4629,-4.4726,-4.4636,-4.4643,-4.4627,-4.4622,-4.4628,-4.4742,-4.4745,-4.4748,-4.475,0,-4.4343,-4.4331,-4.4378,-4.4423,-4.4462,-4.4495,-4.4524,-4.4555,-4.4526,-4.4568,-4.4626,-4.4658,-4.4721,-4.4774,-4.4817,-4.4825,-4.4783,-4.4779,-4.4799,-4.4808,-4.4811,-4.4808,-4.4521,-4.4771,-4.4769,-4.4768,-4.4766,-4.4766,-4.4509,-4.4564,-4.4584,-4.4637,-4.4656,-4.4684,-4.4735,-4.4733,-4.4781,-4.483,-4.4809,-4.4876,-4.4897,-4.4949,-4.4964,-4.5015,-4.4978,-4.5009,-4.5016,-4.5024,-4.5033,-4.4806,-4.5023,-4.5023,-4.5022,-4.5022,-4.5021,0,-4.4731,-4.474,-4.479,-4.4832,-4.4874,-4.4832,-4.4861,-4.4899,-4.4959,-4.4982,-4.5023,-4.5089,-4.5141,-4.5141,-4.5188,-4.5229,-4.5211,-4.5242,-4.5237,-4.524,-4.5065,-4.5041,-4.5257,-4.5257,-4.5256,-4.5256,-4.5256,-4.5256,-4.4851,-4.4941,-4.4932,-4.5031,-4.5039,-4.5105,-4.5125,-4.515,-4.5168,-4.5244,-4.5287,-4.5287,-4.53,-4.5348,-4.5393,-4.5391,-4.541,-4.5449,-4.544,-4.5276,-4.5252,-4.523,-4.5207,-4.5454,-4.5454,-4.5609,-4.5611,-4.5612]},{"header":{"parameterUnit":"m.s-1","parameterCategory":1,"la1":30.2991,"la2":30.254,"lo1":-89.0895,"lo2":-89.0444,"dy":0.0017,"dx":0.0017,"nx":28,"ny":28,"refTime":"2024-12-03T09:00:00:Z","depth":0,"parameterNumber":3,"parameterNumberName":"V-component_of_WINDS"},"data":[0,0,0,0,0,0,0,0,0,0,0,0,0,0,0,0,0,0,0,0,0,0,0,0,0,0,0,0,0,0,0,0,0,0,0,0,0,0,0,0,0,0,0,0,0,0,0,0,0,0,0,0,0,0,0,0,0,0,-0.6057,-0.6057,0,-0.6059,-0.6059,-0.6059,-0.6077,-0.6077,-0.6078,-0.6078,-0.6081,-0.6081,-0.6081,0,0,0,0,0,0,0,0,0,0,0,0,0,-0.607,-0.6069,-0.6057,-0.6057,-0.6057,-0.6059,-0.6059,-0.6059,-0.6077,-0.6077,-0.6078,-0.6079,-0.6081,-0.6081,-0.6081,0,0,0,0,0,0,0,0,0,0,0,0,0,-0.6067,-0.6069,-0.6057,-0.6066,-0.6067,-0.6059,-0.6059,-0.6059,-0.6077,-0.6077,-0.6078,-0.6079,-0.6082,-0.6081,-0.6081,-0.6064,0,0,-0.6079,-0.6079,0,0,0,0,0,0,0,0,-0.6067,-0.6067,-0.6065,-0.6066,-0.6067,-0.6068,-0.6064,-0.6061,-0.6077,-0.6073,-0.6078,-0.6079,-0.6077,-0.6076,-0.6075,-0.6064,-0.6064,-0.6079,-0.6079,-0.6078,-0.6078,0,0,0,0,0,0,0,-0.6067,-0.6067,-0.6058,-0.6065,-0.6066,-0.607,-0.6071,-0.6064,-0.6071,-0.6074,-0.6075,-0.6075,-0.6077,-0.6076,-0.6076,-0.6064,-0.6079,-0.6078,-0.6078,-0.6078,-0.6038,-0.6037,0,0,0,0,0,0,-0.6066,-0.6067,-0.6058,-0.6058,-0.6069,-0.607,-0.607,-0.6067,-0.6071,-0.6072,-0.6074,-0.6076,-0.6076,-0.6076,-0.6076,-0.6055,-0.6078,-0.6078,-0.6078,-0.6038,-0.6037,-0.6037,0,0,0,0,0,0,-0.6066,-0.6065,-0.6058,-0.6063,-0.6062,-0.6069,-0.6065,-0.6067,-0.6065,-0.6072,-0.6073,-0.6071,-0.6077,-0.6076,-0.6066,-0.6056,-0.6078,-0.6077,-0.6039,-0.6038,-0.6037,-0.6015,0,0,0,0,0,0,-0.6067,-0.6065,-0.6059,-0.6062,-0.6062,-0.6048,-0.6065,-0.6066,-0.6064,-0.6066,-0.6069,-0.6071,-0.6077,-0.6067,-0.6066,-0.6056,-0.6077,-0.604,-0.6039,-0.6037,-0.6017,-0.6014,-0.6011,0,0,0,0,0,-0.6067,-0.6053,-0.6059,-0.6057,-0.6054,-0.6047,-0.6047,-0.6055,-0.6064,-0.6057,-0.6061,-0.6071,-0.6057,-0.6066,-0.6064,-0.6054,-0.6041,-0.6039,-0.6037,-0.6018,-0.6014,-0.6011,0,0,0,0,0,0,-0.605,-0.6054,-0.606,-0.6047,-0.6046,-0.6051,-0.6043,-0.605,-0.6048,-0.605,-0.606,-0.606,-0.6048,-0.605,-0.606,-0.6037,-0.6051,-0.6049,-0.6037,-0.6033,-0.603,-0.6029,-0.6076,0,0,0,0,0,-0.6044,-0.6038,-0.6043,-0.6031,-0.603,-0.6036,-0.6034,-0.6039,-0.604,-0.604,-0.6043,-0.6043,-0.6039,-0.6036,-0.6032,-0.6017,-0.6018,-0.6009,-0.6006,-0.6004,-0.6002,-0.5993,-0.5989,-0.6031,-0.6031,-0.6031,0,0,-0.6033,-0.6035,-0.603,-0.6027,-0.6027,-0.6021,-0.6036,-0.6029,-0.6024,-0.6039,-0.6029,-0.6031,-0.6032,-0.6019,-0.6013,-0.602,-0.599,-0.6001,-0.5999,-0.5999,-0.5991,-0.5987,-0.5983,-0.603,-0.603,-0.603,0,0,-0.6009,-0.601,-0.5999,-0.5999,-0.5999,-0.6003,-0.6001,-0.6003,-0.6005,-0.5995,-0.6006,-0.6,-0.5993,-0.5992,-0.5991,-0.5966,-0.5974,-0.5964,-0.5948,-0.5939,-0.5936,-0.5933,-0.5923,-0.5919,-0.5962,-0.5962,-0.5962,0,-0.5995,-0.5986,-0.5993,-0.5985,-0.5983,-0.5995,-0.5984,-0.5984,-0.5983,-0.5981,-0.5988,-0.5978,-0.598,-0.5966,-0.596,-0.5959,-0.5956,-0.5964,-0.5936,-0.5933,-0.593,-0.5921,-0.5917,-0.5961,-0.5961,-0.5961,-0.5961,0,-0.5968,-0.5961,-0.5953,-0.5951,-0.5948,-0.5938,-0.5944,-0.594,-0.5946,-0.5949,-0.5938,-0.594,-0.5937,-0.5934,-0.594,-0.5921,-0.5925,-0.5934,-0.5947,-0.5925,-0.5916,-0.5913,-0.5959,-0.596,-0.596,-0.596,0,0,-0.5934,-0.5935,-0.5932,-0.593,-0.5931,-0.5926,-0.5916,-0.5912,-0.5908,-0.5907,-0.5899,-0.5892,-0.59,-0.5898,-0.5904,-0.5896,-0.5875,-0.5906,-0.5906,-0.59,-0.5853,-0.5847,-0.5842,-0.588,-0.588,-0.5879,-0.5853,0,-0.5911,-0.5895,-0.59,-0.5884,-0.5877,-0.5888,-0.588,-0.5879,-0.5881,-0.5876,-0.5879,-0.5873,-0.5884,-0.5883,-0.5876,-0.5879,-0.5866,-0.5881,-0.5873,-0.5873,-0.5873,-0.5838,-0.5831,-0.5806,-0.585,-0.5849,-0.5849,0,-0.5881,-0.5878,-0.586,-0.586,-0.5858,-0.585,-0.5846,-0.5841,-0.584,-0.5842,-0.584,-0.5847,-0.5838,-0.5851,-0.5838,-0.5848,-0.5845,-0.5846,-0.5845,-0.5845,-0.586,-0.5836,-0.5799,-0.5795,-0.5844,-0.5844,-0.5845,0,-0.5857,-0.5848,-0.5836,-0.5835,-0.5835,-0.5829,-0.5829,-0.5829,-0.5825,-0.5822,-0.582,-0.5816,-0.5813,-0.581,-0.5815,-0.5825,-0.5801,-0.5815,-0.5803,-0.5803,-0.5798,-0.5798,-0.5759,-0.5796,-0.5796,-0.5796,-0.5796,0,-0.583,-0.5819,-0.5825,-0.5818,-0.5805,-0.5812,-0.58,-0.5801,-0.58,-0.5793,-0.5802,-0.5795,-0.5803,-0.5797,-0.5801,-0.5789,-0.5788,-0.579,-0.5791,-0.5789,-0.5789,-0.5787,-0.5789,-0.5795,-0.5795,-0.5795,-0.5796,0,-0.5802,-0.5805,-0.5793,-0.5794,-0.5793,-0.5784,-0.5785,-0.5778,-0.578,-0.5771,-0.5769,-0.5774,-0.5767,-0.5772,-0.5765,-0.5768,-0.5752,-0.5756,-0.5752,-0.5753,-0.5741,-0.5742,-0.5699,-0.5694,-0.5734,-0.5734,-0.5734,0,-0.5784,-0.5776,-0.5775,-0.577,-0.5769,-0.5762,-0.5759,-0.5765,-0.576,-0.5758,-0.5751,-0.5745,-0.574,-0.5729,-0.5731,-0.5726,-0.5729,-0.5715,-0.5729,-0.5727,-0.5729,-0.5729,-0.5728,-0.5712,-0.5712,-0.5711,-0.5711,0,-0.5752,-0.5754,-0.5748,-0.5743,-0.5738,-0.5734,-0.5731,-0.5727,-0.5733,-0.5727,-0.572,-0.5716,-0.5709,-0.5702,-0.5698,-0.5698,-0.5705,-0.5706,-0.5703,-0.5701,-0.5699,-0.5699,-0.5744,-0.5707,-0.5708,-0.5708,-0.5708,-0.5708,-0.5728,-0.5721,-0.5719,-0.5712,-0.571,-0.5706,-0.5699,-0.57,-0.5694,-0.5688,-0.5692,-0.5683,-0.5682,-0.5676,-0.5675,-0.5668,-0.5674,-0.567,-0.5668,-0.5667,-0.5665,-0.57,-0.5667,-0.5667,-0.5667,-0.5668,-0.5668,0,-0.5697,-0.5696,-0.5689,-0.5684,-0.5678,-0.5684,-0.5681,-0.5676,-0.5668,-0.5665,-0.566,-0.5651,-0.5644,-0.5646,-0.564,-0.5634,-0.5637,-0.5632,-0.5633,-0.5632,-0.566,-0.5663,-0.5629,-0.5629,-0.5629,-0.5629,-0.5629,-0.5629,-0.568,-0.5667,-0.5668,-0.5654,-0.5653,-0.5644,-0.5641,-0.5638,-0.5636,-0.5625,-0.562,-0.562,-0.5619,-0.5613,-0.5607,-0.5608,-0.5605,-0.5599,-0.56,-0.5627,-0.563,-0.5634,-0.5637,-0.5598,-0.5598,-0.5573,-0.5573,-0.5573]}]]